Regional Weather Roundup
Issued by NWS

Home | Current Version | Previous Version | Graphics & Text | Print | Product List | Glossary Off
Versions: 1 2 3 4 5 6 7 8 9 10 11 12 13 14 15 16 17 18 19 20 21 22 23 24 25 26 27 28 29 30 31 32 33 34 35 36 37 38 39 40 41 42 43 44 45 46 47 48 49 50

000
ASUS43 KFSD 291610
RWRSD

WEATHER ROUNDUP FOR SOUTH DAKOTA
NATIONAL WEATHER SERVICE SIOUX FALLS SD
1000 AM CST THU JAN 29 2015

NOTE: "FAIR" INDICATES FEW OR NO CLOUDS BELOW 12,000 FEET WITH NO
SIGNIFICANT WEATHER AND/OR OBSTRUCTIONS TO VISIBILITY.


SDZ001>005-009-010-012>017-291700-
NORTHWEST AND NORTH CENTRAL SOUTH DAKOTA

CITY           SKY/WX    TMP DP  RH WIND       PRES   REMARKS
BUFFALO          N/A     27  23  85 NW8       30.38R WCI  19
FAITH            N/A     27  22  81 NW9       30.46R WCI  18
MOBRIDGE       CLOUDY    30  21  69 NW21G28   30.43R WCI  17
$$

SDZ012>016-024>037-041>051-057-063-072>074-291700-
SOUTHWEST AND SOUTH CENTRAL SOUTH DAKOTA

CITY           SKY/WX    TMP DP  RH WIND       PRES   REMARKS
RAPID CTY ARPT SUNNY     28  22  78 CALM      30.46R
PIERRE         SUNNY     33  23  66 NW14      30.45R WCI  23
CUSTER         SUNNY     33 -16  11 NW5       30.40R WCI  29
ELLSWORTH AFB  SUNNY     34  16  47 NW6       30.45R WCI  29
PHILIP         SUNNY     34  24  67 NW15      30.49R WCI  24
PINE RIDGE     SUNNY     29  24  82 W5        30.49R WCI  24
WINNER         PTSUNNY   37  23  56 NW23G31   30.45R
$$

SDZ004>011-016>023-039-040-291700-
NORTHEAST SOUTH DAKOTA

CITY           SKY/WX    TMP DP  RH WIND       PRES   REMARKS
ABERDEEN       CLOUDY    29  22  75 N17       30.44R WCI  17
WATERTOWN      CLOUDY    27  22  81 N22       30.35R WCI  13
$$

SDZ017-020-022-023-036>040-048>070-291700-
SOUTHEAST SOUTH DAKOTA

CITY           SKY/WX    TMP DP  RH WIND       PRES   REMARKS
SIOUX FALLS    CLOUDY    31  24  75 NW20      30.36R WCI  19
HURON          CLOUDY    32  24  72 NW21G26   30.42R WCI  20
CHAMBERLAIN    CLOUDY    34  26  73 NW20G26   30.45R WCI  22
MITCHELL       CLOUDY    34  25  69 N21G31    30.42R WCI  22
YANKTON        CLOUDY    34  27  75 NW14      30.41R WCI  24
$$

ABBREVIATIONS USED IN REMARKS
   TC - TEMPERATURE IN CELSIUS
  WCI - WIND CHILL INDEX
   HX - HEAT INDEX
  VSB - VISIBILITY




USA.gov is the U.S. government's official web portal to all federal, state and local government web resources and services.